K3GM Weather Reports


Display with metric or nautical units.
time (UTC)temp
F
wind
direction
speed
MPH
gust
MPH
rain 1hr
in
rain 24hr
in
rain mn
in
humidity
%
barometer
mb
20260906224541 77 0 0.0 0.0 0.00 0.00 0.00 56 1015.3
20260906223038 77 0 0.0 0.0 0.00 0.00 0.00 54 1015.4
20260906221543 77 0 0.0 0.0 0.00 0.00 0.00 45 1015.3
20260906220042 77 0 0.0 0.0 0.00 0.00 0.00 52 1015.2
20260906214537 77 0 0.0 0.0 0.00 0.00 0.00 53 1015.0
20260906213038 78 0 0.0 0.0 0.00 0.00 0.00 44 1014.9
20260906211537 78 0 0.0 0.0 0.00 0.00 0.00 53 1014.9
20260906210041 78 0 0.0 0.0 0.00 0.00 0.00 54 1014.8
20260906204539 78 0 0.0 0.0 0.00 0.00 0.00 53 1014.7
20260906203038 78 0 0.0 0.0 0.00 0.00 0.00 45 1014.9
20260906201542 78 0 0.0 0.0 0.00 0.00 0.00 45 1014.8
20260906200043 78 0 0.0 0.0 0.00 0.00 0.00 47 1015.0
20260906194542 79 0 0.0 0.0 0.00 0.00 0.00 46 1015.2
20260906193042 79 0 0.0 0.0 0.00 0.00 0.00 47 1015.1
20260906191543 79 0 0.0 0.0 0.00 0.00 0.00 49 1015.2
20260906190042 79 0 0.0 0.0 0.00 0.00 0.00 57 1015.3
20260906184551 79 0 0.0 0.0 0.00 0.00 0.00 57 1015.4
20260906183050 78 0 0.0 0.0 0.00 0.00 0.00 50 1015.6
20260906181543 77 0 0.0 0.0 0.00 0.00 0.00 53 1015.6
20260906180043 77 0 0.0 0.0 0.00 0.00 0.00 57 1015.7
20260906174542 76 0 0.0 0.0 0.00 0.00 0.00 57 1015.9
20260906173044 75 0 0.0 0.0 0.00 0.00 0.00 67 1015.9
20260906171541 76 0 0.0 0.0 0.00 0.00 0.00 59 1016.0
20260906170043 77 0 0.0 0.0 0.00 0.00 0.00 65 1016.1
20260906164542 77 0 0.0 0.0 0.00 0.00 0.00 60 1016.0
20260906163045 77 0 0.0 0.0 0.00 0.00 0.00 67 1016.0
20260906161542 76 0 0.0 0.0 0.00 0.00 0.00 60 1016.1
20260906160056 76 0 0.0 0.0 0.00 0.00 0.00 60 1016.1
20260906154555 75 0 0.0 0.0 0.00 0.00 0.00 59 1016.1
20260906153044 76 0 0.0 0.0 0.00 0.00 0.00 60 1016.2
20260906151542 76 0 0.0 0.0 0.00 0.00 0.00 62 1016.2
20260906150043 75 0 0.0 0.0 0.00 0.00 0.00 71 1016.2
20260906144543 74 0 0.0 0.0 0.00 0.00 0.00 72 1015.9
20260906143044 73 0 0.0 0.0 0.00 0.00 0.00 67 1015.9
20260906141544 72 0 0.0 0.0 0.00 0.00 0.00 69 1015.9
20260906140042 72 0 0.0 0.0 0.00 0.00 0.00 70 1015.9
20260906134555 71 0 0.0 0.0 0.00 0.00 0.00 72 1015.7
20260906133107 70 0 0.0 0.0 0.00 0.00 0.00 82 1015.7
20260906131541 69 0 0.0 0.0 0.00 0.00 0.00 83 1015.7
20260906130042 68 0 0.0 0.0 0.00 0.00 0.00 84 1015.8
20260906124540 68 0 0.0 0.0 0.00 0.00 0.00 84 1015.6
20260906123044 68 0 0.0 0.0 0.00 0.00 0.00 83 1015.5
20260906121543 67 0 0.0 0.0 0.00 0.00 0.00 85 1015.5
20260906120042 66 0 0.0 0.0 0.00 0.00 0.00 86 1015.3
20260906114539 66 0 0.0 0.0 0.00 0.00 0.00 87 1015.1
20260906113043 65 0 0.0 0.0 0.00 0.00 0.00 88 1015.0
20260906111543 65 0 0.0 0.0 0.00 0.00 0.00 88 1014.8
20260906110043 64 0 0.0 0.0 0.00 0.00 0.00 89 1014.6
20260906104544 64 0 0.0 0.0 0.00 0.00 0.00 88 1014.3
20260906103042 65 0 0.0 0.0 0.00 0.00 0.00 87 1014.2
20260906101545 65 0 0.0 0.0 0.00 0.00 0.00 86 1014.0
20260906100043 65 0 0.0 0.0 0.00 0.00 0.00 86 1013.7
20260906094539 65 0 0.0 0.0 0.00 0.00 0.00 85 1013.6
20260906093058 66 0 0.0 0.0 0.00 0.00 0.00 85 1013.1
20260906091541 66 0 0.0 0.0 0.00 0.00 0.00 84 1013.0
20260906090043 66 0 0.0 0.0 0.00 0.00 0.00 84 1012.9
20260906084545 66 0 0.0 0.0 0.00 0.00 0.00 84 1012.7
20260906083044 66 0 0.0 0.0 0.00 0.00 0.00 84 1012.3
20260906081544 66 0 0.0 0.0 0.00 0.00 0.00 83 1012.5
20260906080043 66 0 0.0 0.0 0.00 0.00 0.00 83 1012.4
20260906074542 66 0 0.0 0.0 0.00 0.00 0.00 83 1012.2
20260906073038 66 0 0.0 0.0 0.00 0.00 0.00 83 1012.4
20260906071545 67 0 0.0 0.0 0.00 0.00 0.00 83 1012.5
20260906070044 67 0 0.0 0.0 0.00 0.00 0.00 82 1012.5
20260906064539 67 0 0.0 0.0 0.00 0.00 0.00 81 1012.4
20260906063040 67 0 0.0 0.0 0.00 0.00 0.00 81 1012.5
20260906061546 68 0 0.0 0.0 0.00 0.00 0.00 80 1012.8
20260906060044 68 0 0.0 0.0 0.00 0.00 0.00 79 1012.8
20260906054554 68 0 0.0 0.0 0.00 0.00 0.00 80 1012.9
20260906053044 68 0 0.0 0.0 0.00 0.00 0.00 80 1013.0
20260906051542 68 0 0.0 0.0 0.00 0.00 0.00 80 1012.8
20260906050059 68 0 0.0 0.0 0.00 0.00 0.00 80 1013.1
20260906044540 68 0 0.0 0.0 0.00 0.00 0.00 81 1013.2
20260906043039 68 0 0.0 0.0 0.00 0.00 0.00 80 1013.1
20260906041543 68 0 0.0 0.0 0.00 0.00 0.00 79 1013.3
20260906040044 67 0 0.0 0.0 0.00 0.00 0.00 82 1013.0
20260906034544 68 0 0.0 0.0 0.00 0.00 0.00 81 1013.2
20260906033053 68 0 0.0 0.0 0.00 0.00 0.00 80 1013.0
20260906031542 68 0 0.0 0.0 0.00 0.00 0.00 79 1012.9
20260906030042 69 0 0.0 0.0 0.00 0.00 0.00 78 1012.5
20260906024541 69 0 0.0 0.0 0.00 0.00 0.00 75 1012.6
20260906023040 70 0 0.0 0.0 0.00 0.00 0.00 74 1012.7
20260906021550 71 0 0.0 0.0 0.00 0.00 0.00 72 1012.7
20260906020051 71 0 0.0 0.0 0.00 0.00 0.00 71 1012.6
20260906014550 70 0 0.0 0.0 0.00 0.00 0.00 72 1012.4
20260906013046 71 0 0.0 0.0 0.00 0.00 0.00 71 1012.3
20260906011542 70 0 0.0 0.0 0.00 0.00 0.00 72 1012.1
20260906010040 71 0 0.0 0.0 0.00 0.00 0.00 71 1011.9
20260906004535 72 0 0.0 0.0 0.00 0.00 0.00 70 1011.9
20260906003042 72 0 0.0 0.0 0.00 0.00 0.00 70 1011.8
20260906001542 72 0 0.0 0.0 0.00 0.00 0.00 67 1011.6
20260906000041 73 0 0.0 0.0 0.00 0.00 0.00 67 1011.4
20260905234550 74 0 0.0 0.0 0.00 0.00 0.00 57 1011.3
20260905233044 75 0 0.0 0.0 0.00 0.00 0.00 54 1011.1
20260905231546 76 0 0.0 0.0 0.00 0.00 0.00 60 1011.1
20260905230131 77 0 0.0 0.0 0.00 0.00 0.00 59 1011.2